Zurück zum Katalog

H-2 R/B(2)

AktivHEO
NORAD 23523·ROCKET BODY·🇯🇵 Japan

Gestartet Mar 18, 1995 von Tanegashima Space Center

Loading…

Nächste Überflüge (nächste 24 Stunden)

TLE

AktuellSource: Space-Track

Epoche: Sep 14, 2026, 12:39 UTC

1 23523U 95011C   26257.52743388  .00006566  00000-0  10006-2 0  9995
2 23523  25.1433 253.2457 6446598  46.8146 351.5937  3.40640185337258

Verfolge H-2 R/B(2) in Echtzeit mit AllMySat

Download on the App Store